Back to catalog

ASTRO H

AliveScienceVLEO
NORAD 41337·PAYLOAD·🇯🇵 Japan

Launched Feb 17, 2016 from Tanegashima Space Center

Loading…

Next Passes (next 24 hours)

TLE

FreshSource: Space-Track

Epoch: Sep 14, 2026, 13:29 UTC

1 41337U 16012A   26257.56246678  .00002306  00000-0  12952-3 0  9997
2 41337  30.9981 216.8109 0009316  72.9877 287.1781 15.10863322580813

Track ASTRO H in real time with AllMySat

Download on the App Store